Wind_Speed
101 93 89 86 84 81 77 73 68 66 69 77 85 91 93 94 95 98 100 103 108 115 120 126 128 130 133 137 131 126 122 119 119 117 111 109 108 110
89 85 79 75 74 73 70 68 64 61 61 66 76 83 85 86 88 93 99 101 105 109 112 116 123 130 133 136 132 130 132 128 124 122 119 116 113 110
81 76 73 70 69 68 66 65 64 61 57 60 69 76 78 76 79 83 89 95 102 106 108 112 115 124 131 135 131 136 140 138 134 129 124 120 119 116
76 73 72 70 67 64 61 60 59 58 54 54 61 71 72 69 72 75 79 83 91 98 104 107 113 115 122 126 128 133 141 145 140 140 134 126 123 121
71 68 67 67 65 63 58 54 52 54 54 52 57 62 65 65 65 68 72 74 79 84 91 101 108 114 114 118 121 124 135 140 143 143 142 137 132 127
67 64 63 62 60 56 54 53 51 51 50 50 56 56 59 61 59 59 64 65 71 76 79 89 98 107 110 111 115 115 122 130 136 141 142 145 141 135
63 61 59 57 53 51 51 51 49 48 45 44 49 53 56 57 53 52 57 61 65 71 74 79 86 95 101 106 111 111 114 117 121 130 139 142 146 145
60 58 56 53 50 48 45 43 45 47 44 42 43 47 48 52 50 49 53 56 63 69 71 74 78 82 88 100 106 109 108 106 107 116 124 138 143 146
56 55 55 51 49 47 42 39 40 42 42 40 40 43 44 43 44 47 49 53 57 61 67 70 75 78 80 89 96 103 105 103 103 105 109 118 132 142
54 54 53 50 46 43 41 38 37 37 38 35 35 39 39 37 40 41 45 51 54 58 62 65 67 72 77 81 86 92 99 101 100 102 104 107 115 127
50 47 45 43 39 37 36 34 33 33 33 31 32 34 36 37 38 41 43 45 47 49 56 59 60 63 69 76 81 84 89 92 95 100 103 105 111 115
47 45 43 40 37 33 31 29 28 27 27 26 27 30 30 34 35 35 37 40 40 44 50 57 54 59 62 68 73 77 80 83 85 90 98 104 108 112
48 44 39 35 30 27 25 23 22 21 22 22 23 26 27 29 29 30 31 34 36 39 49 53 51 56 61 65 67 69 72 76 79 82 87 96 103 111
45 39 34 29 25 23 21 18 18 18 18 19 20 22 24 25 26 27 28 30 36 43 45 44 45 49 54 58 61 63 65 68 73 77 81 86 92 103
40 35 31 27 23 21 19 17 16 16 16 17 18 19 21 23 24 24 26 31 34 36 38 41 44 46 48 52 57 60 62 63 67 71 75 79 84 92
36 32 28 24 21 19 18 16 15 15 15 16 18 18 20 21 22 23 25 27 29 31 33 36 41 43 45 48 51 56 60 62 61 63 67 73 79 84
34 30 27 23 21 19 17 15 14 15 15 15 16 17 18 19 20 22 23 25 26 27 30 32 34 37 41 44 48 51 55 56 58 60 62 64 67 73
33 29 26 23 21 18 16 15 14 14 15 15 15 15 17 18 19 20 21 23 25 26 28 30 32 35 38 41 43 45 48 52 55 56 56 57 58 62
31 29 26 23 21 19 17 15 15 15 15 15 16 16 17 18 18 20 21 23 25 27 29 31 32 33 36 38 39 40 43 46 50 53 53 54 54 56
28 27 25 23 22 20 19 17 17 17 17 16 17 17 18 20 21 22 24 25 26 27 28 30 32 34 35 36 36 39 41 41 44 48 50 50 52 55
28 27 26 24 23 21 20 19 18 19 19 19 19 20 21 22 22 24 24 25 26 27 29 30 31 33 34 35 37 38 38 40 42 45 47 48 48 51
28 27 27 25 24 22 21 21 20 20 21 22 21 22 22 24 25 25 25 25 26 27 28 30 32 33 34 35 36 38 37 38 39 41 43 45 47 48
30 28 26 26 24 23 22 22 22 21 22 24 25 25 24 25 26 26 27 27 28 28 30 31 32 33 33 33 34 35 35 35 37 40 41 44 45 46
Wind_Direction
295 294 292 289 287 285 283 280 275 269 263 259 258 256 253 249 247 246 244 241 240 239 239 237 237 234 233 232 227 227 227 227 228 229 228 228 229 230
297 295 293 291 288 286 285 281 277 271 266 259 257 256 254 252 248 244 242 241 240 239 238 236 235 235 233 233 229 227 226 224 225 227 227 228 229 229
298 297 296 293 290 287 284 281 278 272 266 260 258 257 256 252 249 246 243 241 240 239 238 238 235 235 235 234 231 228 227 223 222 224 225 226 228 228
300 299 297 294 292 288 286 282 278 274 267 260 257 257 256 253 250 247 244 242 240 239 238 238 238 236 236 236 235 230 230 226 223 222 222 224 226 228
300 299 297 294 292 290 287 281 277 273 269 262 255 255 255 253 249 248 246 244 241 240 237 237 237 238 237 237 236 233 231 230 226 223 222 222 224 226
302 299 297 293 292 291 289 285 280 273 267 262 257 253 252 252 250 245 245 243 242 241 237 236 236 237 238 238 238 236 234 231 229 228 225 224 223 224
303 300 297 296 296 292 287 283 278 274 268 261 258 254 251 251 247 243 242 240 238 240 237 235 234 236 236 236 237 237 237 235 233 230 229 227 224 224
303 302 299 298 296 289 285 279 276 272 269 263 258 257 252 251 247 240 236 235 235 236 235 234 235 234 233 235 236 236 237 236 234 232 230 229 228 226
305 303 301 301 298 293 289 282 276 272 269 264 259 255 251 248 247 241 238 236 233 235 236 232 232 233 232 233 234 235 237 236 234 233 232 229 229 229
305 304 302 300 296 293 290 285 279 274 270 266 261 259 256 250 246 242 237 234 232 231 235 234 232 232 232 233 234 234 236 237 236 235 232 230 229 228
308 306 303 302 298 294 289 284 278 273 269 264 258 254 252 246 243 239 238 238 237 232 233 234 231 231 231 232 234 235 236 237 235 234 235 232 229 228
312 310 307 303 298 293 288 283 278 271 266 261 254 251 249 246 243 242 241 238 235 231 230 234 229 231 231 232 233 234 235 237 236 234 232 232 231 230
314 313 309 304 297 291 289 285 280 273 267 261 253 247 243 242 240 238 236 234 230 228 228 231 230 230 230 231 232 233 234 235 237 236 234 232 232 232
316 314 313 308 300 295 292 286 280 272 266 258 252 246 240 237 236 234 232 230 228 227 230 232 231 231 231 231 231 233 235 235 235 235 235 233 231 231
317 316 314 310 304 300 294 285 279 272 262 254 247 244 239 236 234 232 231 230 231 230 229 230 232 231 232 231 230 232 234 234 233 233 234 234 232 231
318 317 314 311 307 302 296 286 278 272 263 253 244 240 237 235 234 233 232 232 231 231 229 229 230 231 232 233 232 232 233 234 235 235 235 234 234 233
319 320 317 313 310 302 297 288 281 273 264 255 248 240 239 237 235 234 234 235 235 234 232 232 231 232 232 233 233 234 235 237 236 236 237 237 236 236
321 321 319 314 308 302 298 288 280 272 263 257 249 240 234 234 231 230 231 233 237 238 238 237 236 235 235 237 237 235 236 238 240 239 239 238 236 235
319 319 318 314 307 303 295 287 277 270 264 256 247 241 238 233 232 231 230 230 232 233 235 237 238 239 239 239 240 241 239 240 241 242 241 239 239 237
319 316 315 313 308 301 295 285 275 270 265 259 251 244 241 239 235 232 231 231 233 235 237 239 240 241 243 244 243 243 243 241 241 244 244 242 238 239
319 317 314 311 306 301 293 287 275 269 264 261 256 249 243 242 239 236 234 234 236 238 239 240 240 241 241 243 244 244 244 244 243 243 245 245 242 240
320 318 315 311 306 299 292 285 280 269 264 261 257 256 252 247 243 241 240 238 238 238 239 242 244 245 245 243 242 245 244 243 243 244 244 244 244 243
319 317 314 311 307 299 292 285 279 275 266 260 259 257 255 253 251 248 247 245 243 240 241 243 247 248 249 250 249 245 245 245 244 241 242 243 244 244
Height
10183 10174 10165 10156 10148 10141 10138 10137 10140 10143 10142 10139 10133 10132 10138 10151 10164 10173 10183 10195 10206 10215 10226 10244 10264 10283 10299 10306 10328 10350 10365 10379 10396 10409 10431 10442 10455 10469
10153 10143 10136 10130 10121 10115 10112 10109 10110 10114 10116 10114 10105 10100 10107 10120 10134 10143 10149 10162 10170 10181 10193 10207 10224 10241 10258 10275 10300 10317 10328 10346 10362 10380 10399 10413 10428 10442
10125 10117 10109 10103 10095 10090 10087 10084 10083 10085 10091 10090 10082 10077 10080 10093 10102 10111 10121 10133 10141 10151 10164 10174 10191 10203 10218 10237 10261 10284 10295 10309 10328 10348 10367 10386 10398 10414
10102 10094 10085 10076 10070 10066 10064 10060 10059 10057 10064 10066 10062 10053 10060 10069 10076 10084 10093 10104 10114 10124 10137 10147 10157 10173 10185 10201 10223 10246 10257 10278 10298 10315 10333 10358 10370 10388
10083 10074 10064 10054 10048 10044 10043 10040 10039 10036 10039 10042 10039 10037 10040 10045 10054 10062 10069 10080 10088 10098 10113 10121 10130 10139 10154 10170 10187 10207 10222 10244 10269 10283 10305 10323 10341 10359
10061 10052 10044 10037 10032 10027 10022 10019 10019 10018 10019 10021 10017 10019 10021 10024 10032 10042 10048 10058 10066 10074 10086 10095 10105 10113 10127 10148 10160 10175 10188 10209 10231 10254 10274 10293 10311 10328
10042 10034 10026 10020 10016 10011 10006 10002 10000 9999 10000 10001 10000 10001 10003 10008 10017 10024 10030 10037 10043 10049 10061 10071 10080 10089 10106 10120 10131 10147 10161 10180 10201 10222 10243 10263 10282 10296
10024 10016 10008 10004 10000 9994 9991 9988 9983 9981 9982 9984 9984 9984 9988 9992 10000 10007 10012 10016 10023 10027 10036 10049 10059 10069 10086 10093 10105 10118 10133 10151 10171 10189 10209 10231 10251 10270
10009 10001 9992 9988 9983 9978 9976 9973 9969 9966 9965 9967 9969 9969 9972 9979 9985 9991 9997 10002 10007 10013 10019 10029 10038 10048 10062 10069 10080 10092 10104 10123 10141 10158 10178 10200 10217 10237
9996 9987 9979 9973 9969 9963 9960 9957 9954 9952 9953 9955 9957 9958 9961 9967 9970 9975 9980 9983 9989 9997 10002 10011 10021 10032 10042 10051 10061 10071 10081 10095 10115 10130 10147 10167 10186 10200
9982 9974 9966 9960 9956 9951 9948 9945 9943 9941 9940 9942 9944 9946 9949 9953 9957 9961 9967 9973 9980 9988 9990 9995 10007 10016 10025 10033 10041 10051 10061 10074 10089 10103 10120 10138 10152 10167
9969 9962 9955 9949 9944 9941 9937 9934 9932 9931 9930 9931 9933 9936 9939 9943 9947 9953 9958 9963 9970 9976 9979 9980 9995 10001 10010 10016 10025 10034 10044 10054 10067 10081 10095 10108 10125 10141
9955 9949 9943 9938 9934 9930 9927 9925 9923 9922 9923 9924 9925 9927 9930 9934 9939 9943 9948 9953 9959 9964 9964 9969 9981 9986 9994 10002 10010 10019 10029 10038 10048 10060 10071 10084 10097 10114
9945 9939 9933 9928 9924 9921 9919 9918 9917 9916 9916 9917 9918 9920 9923 9927 9930 9934 9939 9943 9946 9948 9954 9964 9971 9976 9982 9990 9999 10007 10014 10022 10030 10038 10048 10061 10075 10089
9937 9931 9926 9921 9917 9914 9913 9911 9911 9910 9910 9911 9912 9914 9917 9920 9923 9927 9930 9933 9937 9942 9948 9953 9957 9964 9970 9978 9985 9991 9997 10004 10011 10019 10029 10040 10053 10066
9930 9924 9919 9915 9911 9909 9907 9906 9905 9905 9906 9906 9907 9908 9911 9914 9917 9920 9923 9926 9929 9933 9938 9942 9947 9953 9959 9965 9971 9978 9983 9989 9998 10006 10014 10022 10031 10043
9923 9918 9913 9909 9906 9904 9902 9901 9900 9900 9901 9901 9903 9904 9906 9909 9911 9914 9916 9919 9922 9926 9929 9933 9938 9943 9948 9953 9959 9966 9971 9978 9985 9992 9998 10006 10016 10026
9916 9911 9907 9903 9901 9899 9898 9897 9896 9896 9896 9897 9898 9900 9901 9903 9906 9908 9911 9913 9916 9918 9921 9925 9930 9934 9938 9942 9948 9955 9961 9966 9970 9976 9985 9993 10002 10010
9910 9906 9902 9898 9896 9894 9893 9892 9891 9891 9891 9892 9893 9895 9896 9898 9900 9903 9905 9907 9910 9913 9916 9918 9922 9925 9929 9933 9938 9943 9948 9953 9957 9961 9969 9977 9985 9990
9906 9901 9897 9893 9890 9888 9887 9886 9886 9886 9886 9887 9888 9890 9891 9893 9895 9898 9900 9902 9904 9906 9909 9911 9914 9917 9920 9924 9928 9932 9936 9941 9945 9949 9954 9961 9968 9972
9900 9895 9890 9887 9884 9882 9880 9879 9880 9880 9880 9881 9882 9884 9886 9887 9889 9892 9894 9896 9898 9900 9901 9903 9906 9908 9911 9915 9917 9921 9925 9929 9933 9937 9941 9947 9952 9957
9894 9888 9884 9880 9877 9874 9873 9872 9872 9873 9873 9874 9875 9876 9878 9880 9882 9884 9886 9888 9890 9892 9894 9895 9897 9900 9902 9905 9908 9910 9914 9918 9921 9925 9929 9933 9937 9941
9887 9882 9877 9873 9870 9867 9866 9865 9864 9865 9865 9866 9867 9869 9870 9871 9873 9875 9877 9879 9881 9884 9886 9887 9888 9890 9892 9894 9897 9900 9903 9906 9909 9913 9916 9920 9923 9926